Regional Weather Roundup
Issued by NWS

Home | Current Version | Previous Version | Graphics & Text | Print | Product List | Glossary On
Versions: 1 2 3 4 5 6 7 8 9 10 11 12 13 14 15 16 17 18 19 20 21 22 23 24 25 26 27 28 29 30 31 32 33 34 35 36 37 38 39 40 41 42 43 44 45 46 47 48 49 50
000
ASUS45 KSLC 190310
RWRUT

UTAH REGIONAL WEATHER ROUNDUP
NATIONAL WEATHER SERVICE SALT LAKE CITY UT
900 PM MDT THU SEP 18 2014

UTZ001>011-023>025-190400-

NORTHERN UTAH

CITY           SKY/WX    TMP DP  RH WIND       PRES   REMARKS
HILL AFB       PTCLDY    71  52  52 N8        29.85R
LOGAN          CLEAR     69  53  56 N26G35    29.89S
OGDEN          PTCLDY    72  51  47 NW5       29.81R
PROVO AIRPORT  PTCLDY    73  59  60 CALM      29.84R
SALT LAKE CITY PTCLDY    74  53  48 N21       29.80R
VERNAL         CLEAR     68  46  45 VRB3      29.92R
WENDOVER       CLOUDY    72  52  49 E12       29.86R THUNDER
HEBER CITY     MOCLDY    68  48  49 CALM      29.91R
WEST JORDAN    CLEAR     75  48  38 NW14      29.84R

$$

UTZ012>022-026-027-190400-

SOUTHERN UTAH

CITY           SKY/WX    TMP DP  RH WIND       PRES   REMARKS
BRYCE CANYON   CLOUDY    56  45  66 W7        30.13R
CEDAR CITY     CLEAR     67  50  54 CALM      29.96R
MILFORD        CLEAR     73  50  44 S8        29.89R
MOAB/CYNLANDS  CLEAR     75  40  28 W6        29.86R
PRICE          CLEAR     74  39  28 SE7       29.98R
ST GEORGE      PTCLDY    88  52  29 W6        29.78R
KANAB            N/A     72  48  43 N5        29.95R

$$

REGIONAL REPORTS     COLORADO/ARIZONA

CITY           SKY/WX    TMP DP  RH WIND       PRES   REMARKS
CRAIG, CO      CLEAR     56  43  61 E3        30.00R
GRAND JUNCTION CLEAR     69  43  38 CALM      29.89R
RIFLE          CLEAR     68  40  35 CALM      29.96R
MONTROSE       PTCLDY    70  43  37 SE9       30.00R
CORTEZ         CLEAR     60  46  59 NE7       30.03R
PAGE, AZ       CLEAR     81  47  30 SE3       29.87R
GRAND CANYON   PTCLDY    65  51  60 SW6       30.09R
KINGMAN        CLEAR     79  56  45 S9        29.86R
FLAGSTAFF      CLOUDY    62  56  80 SW3       30.14R

$$

REGIONAL REPORTS    NEVADA/IDAHO/WYOMING

CITY           SKY/WX    TMP DP  RH WIND       PRES   REMARKS
LAS VEGAS, NV  CLEAR     92  34  13 SW15      29.68R
ELY            CLEAR     66  37  34 SE10      29.97R
ELKO           PTCLDY    65  54  67 NE9       29.93R
POCATELLO, ID  CLEAR     62  56  80 SW12      29.91R
BURLEY         CLOUDY    66  49  54 S6        29.86R HAZE
EVANSTON, WY   PTCLDY    68  39  34 SW6       30.03R
ROCK SPRINGS   PTCLDY    68  37  32 S13       29.99R

$$


USA.gov is the U.S. government's official web portal to all federal, state and local government web resources and services.